077  
ASUS41 KALY 270610  
RWRALY  
 
NEW YORK STATE HOURLY WEATHER ROUNDUP  
NATIONAL WEATHER SERVICE ALBANY NY  
200 AM EDT THU JUL 27 2017  
 
NOTE: "FAIR" INDICATES FEW OR NO CLOUDS BELOW 12,000 FEET WITH NO  
SIGNIFICANT WEATHER AND/OR NO S TO VISIBILITY
.  
 
NYZ032-033-038>043-046>054-057>066-NYZ062>081-082-084-270700-  
EAST  
 
 
CITY SKY/WX TMP DP RH WIND PRES REMARKS
 
ALBANY CLOUDY 67 58 72 S12 30.03F  
GLENS FALLS CLOUDY 65 60 84 SW8 30.02F  
POUGHKEEPSIE MOCLDY 63 55 75 VRB3 30.09S  
NEWBURGH PTCLDY 63 57 82 CALM 30.12S  
MONTGOMERY PTCLDY 60 57 89 CALM 30.10F  
WHITE PLAINS PTCLDY 63 57 81 CALM 30.11S  
ISLIP MOCLDY 64 58 80 S3 30.10F  
NEW YORK CITY MOCLDY 69 60 73 S5 30.11S  
CENTRAL PARK PTCLDY 67 58 72 CALM 30.13F  

 
 
NYZ005>009-017-018-044>046-055-056-270700-  
CENTRAL  
 
 
CITY SKY/WX TMP DP RH WIND PRES REMARKS
 
FULTON CLOUDY 68 62 81 S6 29.98F  
SYRACUSE MOCLDY 69 61 75 SW3 29.98F  
ROME CLOUDY 67 62 84 E6 30.00F  
ELMIRA CLOUDY 65 62 90 CALM 30.02S  
BINGHAMTON MOCLDY 63 60 90 SW8 30.06R  

 
 
NYZ026>034-041>043-087-270700-  
NORTH  
 
 
CITY SKY/WX TMP DP RH WIND PRES REMARKS
 
WATERTOWN CLOUDY 67 63 87 S3 29.96F  
FORT DRUM NOT AVBL  
OGDENSBURG CLOUDY 64 63 95 CALM 29.96F  
MASSENA CLOUDY 66 61 84 W12 29.96F  
SARANAC LAKE CLOUDY 61 61 100 CALM 30.00F  
PLATTSBURGH CLOUDY 65 61 87 CALM 29.97F  

 
 
NYZ001>004-010>016-019>021-085-270700-  
WEST  
 
 
CITY SKY/WX TMP DP RH WIND PRES REMARKS
 
NIAGARA FALLS CLOUDY 71 63 75 S7 29.98F  
BUFFALO CLOUDY 68 61 78 SW5 30.00R  
DUNKIRK MOCLDY 70 62 76 S8 30.00S  
JAMESTOWN CLOUDY 64 57 77 SW8 30.05F  
WELLSVILLE PTCLDY 66 58 75 SW8 30.07F  
ROCHESTER LGT RAIN 69 65 86 SW6 29.99F  
PENN YAN CLOUDY 69 59 70 SW10 30.02S  

 
 
KEY  
WCI = WIND CHILL INDEX  
VSB = VISIBILITY  
HX = HEAT INDEX  

 
 
 
CLICK HERE TO GO TO PREVIOUS BULLETINS.

The Nexlab NY Page
The Nexlab VT Page
The Nexlab MA Page
The Nexlab CT Page Main Text Page